CARBONITE 1 (CBNT-1)

Last updated on Thu Nov 21 2024 00:02:27 GMT+0000 (Coordinated Universal Time)

1 40718U 15032D 24325.52813928 .00003658 00000+0 48773-3 0 9998 2 40718 97.6457 158.1814 0015830 18.7867 341.3926 14.80110821504375
UTC large
Height (km)
Speed (km/s)
/
Latitude / Longitude
Inclination (degrees)
Orbital Period (minutes)
Azimuth
Elevation
Range (km)
Doppler Factor

Next 0 passes for location: London (51.5072 / 0.1276)

Sorry there are no passes over London.